Regional Weather Roundup
Issued by NWS Sioux Falls, SD

Home | Current Version | Previous Version | Graphics & Text | Print | Product List | Glossary On
Versions: 1 2 3 4 5 6 7 8 9 10 11 12 13 14 15 16 17 18 19 20 21 22 23 24 25 26 27 28 29 30 31 32 33 34 35 36 37 38 39 40 41 42 43 44 45 46 47 48 49 50
000
ASUS43 KFSD 241410
RWRFSD

WEATHER ROUNDUP FOR SE SOUTH DAKOTA/SW MINNESOTA/NW IOWA
NATIONAL WEATHER SERVICE SIOUX FALLS SD
900 AM CDT SUN JUL 24 2016

NOTE: "FAIR" INDICATES FEW OR NO CLOUDS BELOW 12,000 FEET WITH NO
SIGNIFICANT WEATHER AND OR OBSTRUCTIONS TO VISIBILITY.


SDZ038>040-050-052>070-241500-
SOUTHEAST SOUTH DAKOTA

CITY           SKY/WX    TMP DP  RH WIND       PRES   REMARKS
BROOKINGS      PTSUNNY   68  63  84 NW7       30.00R
CHAMBERLAIN    CLOUDY    73  60  65 N8        30.03R
HURON          CLOUDY    66  60  81 N14       29.98F
MADISON        FAIR      66  66 100 N7        30.01R
MITCHELL       CLOUDY    68  62  81 N5        30.03R
SIOUX FALLS    PTSUNNY   75  65  70 N7        29.99R
WINNER         FAIR      73  55  53 N8        30.05S
YANKTON        MOSUNNY   73  66  78 N14       29.98R
$$

MNZ071-072-080-081-089-090-097-098-241500-
SOUTHWEST MINNESOTA

CITY           SKY/WX    TMP DP  RH WIND       PRES   REMARKS
FAIRMONT       SUNNY     75  46  35 NW10      29.91R
JACKSON        SUNNY     73  61  64 N9G17     29.94F
LUVERNE        MOSUNNY   72  63  73 NW8       29.99R
MARSHALL       CLOUDY    70  61  73 NW10      29.94R
MONTEVIDEO     PTSUNNY   72  63  73 N8        29.95R
REDWOOD FALLS  MOSUNNY   72  61  68 NW10      29.91S
TRACY          CLOUDY    72  64  76 NW10G16   29.95R
WINDOM         MOSUNNY   73  63  68 NW13      29.94R
WORTHINGTON    SUNNY     74  64  71 MISG      29.98R
$$

IAZ001>003-012>014-020>022-031-032-NEZ013-014-SDZ071-241500-
NORTHWEST IOWA

CITY           SKY/WX    TMP DP  RH WIND       PRES   REMARKS
CHEROKEE       SUNNY     76  65  68 N9        29.93R
ESTHERVILLE    SUNNY     74  66  76 N15       29.93R
LE MARS        SUNNY     77  66  69 N12       29.95R
SHELDON        SUNNY     75  68  78 N10       29.96R
SIOUX CITY     SUNNY     81  64  56 N10       29.94R
SPENCER        SUNNY     76  65  68 N7        29.94R
STORM LAKE     SUNNY     75  63  64 NE12G18   29.94S
$$

ABBREVIATIONS USED IN REMARKS
   TC - TEMPERATURE IN CELSIUS
  WCI - WIND CHILL INDEX
   HX - HEAT INDEX
  VSB - VISIBILITY




USA.gov is the U.S. government's official web portal to all federal, state and local government web resources and services.